time_stamp(utc),avg(mph),gust(mph),direction(deg),12m_air_temp(f),sonic_u(cm/s),sonic_v(cm/s),sonic_w(cm/s),pressure,2m_air_temp(f),pyranometer(W/m^2)
"2018-11-27 00:02:07+00",17.5,19.5,,53.2,-735,-169,29,995.25,51.8,0
"2018-11-27 00:07:07+00",16.4,18.4,,52.8,-675,-156,19,995.31,51.6,0
"2018-11-27 00:12:07+00",21.2,26.2,,53.2,-876,-179,10,995.32,51.6,0
"2018-11-27 00:17:07+00",17.9,22.9,,53.1,-756,-241,17,995.33,51.5,0
"2018-11-27 00:22:07+00",14.5,17.5,,52.8,-611,-210,30,995.27,51.5,0
"2018-11-27 00:27:07+00",14.4,17.4,,52.6,-616,-242,40,995.27,51.4,0
"2018-11-27 00:32:07+00",14.1,17.1,,52.4,-607,-221,30,995.26,51.3,0
"2018-11-27 00:37:07+00",13.4,14.4,,52.2,-565,-185,29,995.24,51.1,0
"2018-11-27 00:42:07+00",16.0,19.0,,51.9,-674,-123,5,995.21,50.9,0
"2018-11-27 00:47:07+00",14.9,17.9,,51.8,-635,-199,27,995.29,50.9,0
"2018-11-27 00:52:07+00",17.3,21.3,,51.9,-711,-183,24,995.25,50.8,0
"2018-11-27 00:57:07+00",17.4,20.4,,52.1,-738,-93,30,995.22,50.9,0
"2018-11-27 01:02:07+00",17.6,22.6,,52,-749,-112,21,995.13,50.9,0
"2018-11-27 01:07:07+00",18.4,20.4,,52.2,-791,-106,14,995.17,50.9,0
"2018-11-27 01:12:07+00",18.8,21.8,,51.9,-802,-109,21,995.25,50.9,0
"2018-11-27 01:17:07+00",15.6,18.6,,51.7,-666,-92,29,995.4,50.8,0
"2018-11-27 01:22:07+00",17.4,19.4,,51.8,-732,-115,32,995.37,50.7,0
"2018-11-27 01:27:07+00",19.1,24.1,,51.7,-818,-142,22,995.36,50.7,0
"2018-11-27 01:32:07+00",18.3,22.3,,51.6,-775,-203,29,995.49,50.7,0
"2018-11-27 01:37:07+00",17.3,19.3,,51.5,-733,-166,35,995.45,50.6,0
"2018-11-27 01:42:07+00",18.5,22.5,,51.5,-780,-140,30,995.34,50.5,0
"2018-11-27 01:47:07+00",17.7,19.7,,51.4,-755,-132,19,995.33,50.5,0
"2018-11-27 01:52:07+00",17.0,19.0,,51.3,-720,-91,42,995.29,50.4,0
"2018-11-27 01:57:07+00",20.0,22.0,,51.4,-856,-108,15,995.27,50.4,0
"2018-11-27 02:02:07+00",16.6,18.6,,51.2,-705,-100,59,995.17,50.3,0
"2018-11-27 02:07:07+00",17.3,21.3,,51.2,-732,-113,62,995.13,50.3,0
"2018-11-27 02:12:07+00",18.6,21.6,,51.2,-782,-140,40,995.22,50.3,0
"2018-11-27 02:17:07+00",17.5,20.5,,51.2,-749,-148,40,995.22,50.3,0
"2018-11-27 02:22:07+00",19.8,21.8,,51.4,-851,-96,23,995.06,50.4,0
"2018-11-27 02:27:07+00",20.6,22.6,,51.2,-894,-65,27,995.05,50.4,0
"2018-11-27 02:32:07+00",18.2,21.2,,51,-787,-83,51,995.08,50.3,0
"2018-11-27 02:37:07+00",19.0,22.0,,51.1,-810,-115,22,995,50.3,0
"2018-11-27 02:42:07+00",19.5,23.5,,50.9,-863,-34,36,995,50.2,0
"2018-11-27 02:47:07+00",22.0,25.0,,50.7,-982,6,46,994.94,50.1,0
"2018-11-27 02:52:07+00",20.6,24.6,,50.5,-916,-2,64,994.86,49.9,0
"2018-11-27 02:57:07+00",19.5,21.5,,50.2,-856,-4,34,994.87,49.7,0
"2018-11-27 03:02:07+00",22.8,28.8,,49.9,-1010,25,59,994.86,49.4,0
"2018-11-27 03:07:07+00",27.1,31.1,,49.6,-1208,157,56,994.91,49.1,0
"2018-11-27 03:12:07+00",27.2,33.2,,49,-1207,95,73,994.97,48.7,0
"2018-11-27 03:17:07+00",28.5,31.5,,48.7,-1272,188,82,995.09,48.5,0
"2018-11-27 03:22:07+00",28.6,32.6,,48.4,-1258,214,91,995.2,48.3,0
"2018-11-27 03:27:07+00",27.1,29.1,,48.2,-1199,266,81,995.28,48.1,0
"2018-11-27 03:32:07+00",31.8,33.8,,48.1,-1350,454,88,995.15,47.9,0
"2018-11-27 03:37:07+00",31.8,35.8,,47.9,-1373,417,80,995.19,47.8,0
"2018-11-27 03:42:07+00",29.8,34.8,,47.8,-1293,413,115,995.21,47.7,0
"2018-11-27 03:47:07+00",29.2,34.2,,47.7,-1244,463,121,995.2,47.7,0
"2018-11-27 03:52:07+00",33.2,36.2,,47.7,-1430,479,94,995.2,47.6,0
"2018-11-27 03:57:07+00",31.2,35.2,,47.6,-1328,478,136,995.28,47.5,0
"2018-11-27 04:02:07+00",29.3,32.3,,47.5,-1221,511,98,995.45,47.4,0
"2018-11-27 04:07:07+00",33.4,37.4,,47.4,-1407,545,108,995.42,47.3,0
"2018-11-27 04:12:07+00",31.2,36.2,,47.4,-1327,491,85,995.5,47.3,0
"2018-11-27 04:17:07+00",28.3,31.3,,47.3,-1183,499,96,995.56,47.2,0
"2018-11-27 04:22:07+00",33.5,36.5,,47.2,-1404,580,101,995.45,47.1,0
"2018-11-27 04:27:07+00",31.0,37.0,,47.1,-1313,511,94,995.44,47,0
"2018-11-27 04:32:07+00",29.9,32.9,,47,-1240,536,87,995.53,46.9,0
"2018-11-27 04:37:07+00",28.1,31.1,,46.9,-1179,483,107,995.67,46.8,0
"2018-11-27 04:42:07+00",27.8,30.8,,46.8,-1169,452,98,995.61,46.7,0
"2018-11-27 04:47:07+00",27.3,31.3,,46.8,-1165,372,82,995.8,46.7,0
"2018-11-27 04:52:07+00",27.7,31.7,,46.7,-1199,392,94,995.81,46.6,0
"2018-11-27 04:57:07+00",28.6,31.6,,46.7,-1229,386,70,995.94,46.6,0
"2018-11-27 05:02:07+00",28.4,30.4,,46.6,-1237,298,57,996.01,46.6,0
"2018-11-27 05:07:07+00",25.8,30.8,,46.4,-1138,186,62,996.14,46.4,0
"2018-11-27 05:12:07+00",29.9,32.9,,46.3,-1309,294,72,995.98,46.3,0
"2018-11-27 05:17:07+00",26.6,29.6,,46,-1191,168,80,996.09,46.1,0
"2018-11-27 05:22:07+00",32.0,35.0,,45.8,-1377,421,72,996,45.9,0
"2018-11-27 05:27:07+00",29.3,31.3,,45.6,-1260,411,77,996.12,45.7,0
"2018-11-27 05:32:07+00",28.4,31.4,,45.4,-1252,263,66,996.15,45.6,0
"2018-11-27 05:37:07+00",27.9,31.9,,45.2,-1219,266,66,996.15,45.4,0
"2018-11-27 05:42:07+00",31.4,35.4,,45,-1375,293,64,996.15,45.2,0
"2018-11-27 05:47:07+00",26.6,31.6,,44.8,-1174,160,63,996.23,45.1,0
"2018-11-27 05:52:07+00",28.5,32.5,,44.7,-1227,296,99,996.22,45,0
"2018-11-27 05:57:07+00",34.3,38.3,,44.4,-1483,394,93,996.18,44.7,0
"2018-11-27 06:02:07+00",31.9,34.9,,44.3,-1361,429,78,996.27,44.5,0
"2018-11-27 06:07:07+00",34.7,40.7,,44.1,-1422,606,94,996.32,44.3,0
"2018-11-27 06:12:07+00",29.1,33.1,,44.1,-1224,498,95,996.39,44.1,0
"2018-11-27 06:17:07+00",27.7,30.7,,43.9,-1188,436,100,996.45,44,0
"2018-11-27 06:22:07+00",29.4,32.4,,43.9,-1222,499,79,996.33,43.8,0
"2018-11-27 06:27:07+00",25.2,29.2,,43.8,-1092,341,80,996.5,43.8,0
"2018-11-27 06:32:07+00",26.7,28.7,,43.8,-1152,327,78,996.55,43.8,0
"2018-11-27 06:37:07+00",23.0,27.0,,43.6,-1004,236,67,996.8,43.7,0
"2018-11-27 06:42:07+00",22.4,26.4,,43.4,-990,128,58,996.77,43.4,0
"2018-11-27 06:47:07+00",24.0,27.0,,43.3,-1061,235,64,996.82,43.4,0
"2018-11-27 06:52:07+00",21.4,25.4,,43.1,-954,98,57,996.95,43.2,0
"2018-11-27 06:57:07+00",26.0,28.0,,43.1,-1149,202,61,996.88,43,0
"2018-11-27 07:02:07+00",24.4,27.4,,43,-1080,204,63,996.88,42.9,0
"2018-11-27 07:07:07+00",24.9,27.9,,42.8,-1102,116,54,996.9,42.8,0
"2018-11-27 07:12:07+00",20.6,24.6,,42.6,-916,125,75,996.83,42.7,0
"2018-11-27 07:17:07+00",22.8,26.8,,42.5,-1015,112,23,996.85,42.4,0
"2018-11-27 07:22:07+00",21.4,24.4,,42.3,-962,62,61,996.94,42.3,0
"2018-11-27 07:27:07+00",23.0,27.0,,42.3,-1023,66,31,996.94,42.2,0
"2018-11-27 07:32:07+00",21.8,25.8,,42.1,-970,76,67,996.97,42.1,0
"2018-11-27 07:37:07+00",20.3,24.3,,41.9,-903,4,62,997.01,41.9,0
"2018-11-27 07:42:07+00",23.3,26.3,,41.8,-1031,42,33,997.02,41.8,0
"2018-11-27 07:47:07+00",23.0,25.0,,41.8,-1018,63,40,996.98,41.7,0
"2018-11-27 07:52:07+00",21.3,27.3,,41.7,-945,29,66,997.03,41.7,0
"2018-11-27 07:57:07+00",22.3,25.3,,41.6,-988,21,41,997.02,41.6,0
"2018-11-27 08:02:07+00",25.8,27.8,,41.6,-1141,87,51,996.91,41.5,0
"2018-11-27 08:07:07+00",23.3,27.3,,41.5,-1038,46,68,997.04,41.5,0
"2018-11-27 08:12:07+00",25.8,28.8,,41.5,-1150,81,37,996.87,41.3,0
"2018-11-27 08:17:07+00",22.7,26.7,,41.4,-1002,28,79,996.92,41.3,0
"2018-11-27 08:22:07+00",21.9,25.9,,41.2,-985,8,59,997.02,41.2,0
"2018-11-27 08:27:07+00",22.3,26.3,,41.3,-990,72,70,997.08,41.2,0
"2018-11-27 08:32:07+00",25.7,28.7,,41.2,-1147,43,59,997.07,41.1,0
"2018-11-27 08:37:07+00",25.1,28.1,,41.2,-1106,-36,73,997.11,41.1,0
"2018-11-27 08:42:07+00",23.3,28.3,,41.1,-1029,54,41,997.15,41.1,0
"2018-11-27 08:47:07+00",23.6,25.6,,41.1,-1020,-65,61,997.22,41,0
"2018-11-27 08:52:07+00",24.7,26.7,,41.1,-1074,-92,27,997.35,40.9,0
"2018-11-27 08:57:07+00",20.4,25.4,,41,-891,-68,50,997.4,40.9,0
"2018-11-27 09:02:07+00",21.8,26.8,,40.9,-929,-37,58,997.42,40.8,0
"2018-11-27 09:07:07+00",21.4,25.4,,40.8,-920,-99,74,997.49,40.7,0
"2018-11-27 09:12:07+00",22.5,25.5,,40.9,-974,-85,34,997.55,40.7,0
"2018-11-27 09:17:07+00",20.9,25.9,,40.8,-899,-105,45,997.59,40.6,0
"2018-11-27 09:22:07+00",23.9,30.9,,40.7,-1041,-160,19,997.63,40.5,0
"2018-11-27 09:27:07+00",20.8,24.8,,40.6,-894,-126,44,997.64,40.4,0
"2018-11-27 09:32:07+00",21.2,25.2,,40.5,-921,-106,56,997.61,40.3,0
"2018-11-27 09:37:07+00",23.0,27.0,,40.5,-989,-159,29,997.59,40.3,0
"2018-11-27 09:42:07+00",21.9,27.9,,40.4,-927,-198,41,997.52,40.2,0
"2018-11-27 09:47:07+00",21.1,25.1,,40.3,-901,-137,24,997.55,40.2,0
"2018-11-27 09:52:07+00",19.5,23.5,,40.2,-824,-128,47,997.53,40.1,0
"2018-11-27 09:57:07+00",20.4,22.4,,40.1,-878,-121,46,997.54,40,0
"2018-11-27 10:02:07+00",21.4,24.4,,40.1,-930,-127,35,997.56,39.9,0
"2018-11-27 10:07:07+00",23.1,27.1,,40.2,-995,-109,41,997.61,40,0
"2018-11-27 10:12:07+00",20.6,24.6,,40.1,-909,-62,56,997.74,39.9,0
"2018-11-27 10:17:07+00",21.7,25.7,,40.2,-939,-82,53,997.7,39.9,0
"2018-11-27 10:22:07+00",23.0,27.0,,40.2,-997,-53,53,997.75,39.9,0
"2018-11-27 10:27:07+00",21.1,27.1,,40.2,-921,-10,91,997.73,40,0
"2018-11-27 10:32:07+00",24.2,28.2,,40.2,-1081,-16,76,997.71,40,0
"2018-11-27 10:37:07+00",23.1,29.1,,40.2,-1029,12,50,997.77,40,0
"2018-11-27 10:42:07+00",22.0,25.0,,40.2,-963,7,60,997.79,40,0
"2018-11-27 10:47:07+00",20.3,24.3,,40.2,-909,32,58,997.87,40,0
"2018-11-27 10:52:07+00",23.5,26.5,,40.1,-1031,24,64,997.94,40,0
"2018-11-27 10:57:07+00",24.4,29.4,,40.3,-1085,70,53,997.91,40,0
"2018-11-27 11:02:07+00",24.6,28.6,,40.2,-1088,83,41,997.9,39.9,0
"2018-11-27 11:07:07+00",21.8,25.8,,40.3,-966,115,77,997.99,40,0
"2018-11-27 11:12:07+00",22.7,25.7,,40.1,-1009,29,51,998,40,0
"2018-11-27 11:17:07+00",25.2,28.2,,40.2,-1113,88,44,997.97,39.9,0
"2018-11-27 11:22:07+00",21.9,25.9,,40.1,-976,32,57,998.08,39.9,0
"2018-11-27 11:27:07+00",22.4,26.4,,40.1,-995,84,68,998.21,39.9,0
"2018-11-27 11:32:07+00",23.8,29.8,,40.2,-1053,48,49,998.23,39.9,0
"2018-11-27 11:37:07+00",23.5,26.5,,40.1,-1037,128,50,998.25,39.8,0
"2018-11-27 11:42:07+00",24.3,28.3,,40.2,-1081,129,57,998.33,39.9,0
"2018-11-27 11:47:07+00",19.5,23.5,,40,-870,60,96,998.5,39.8,0
"2018-11-27 11:52:07+00",23.3,28.3,,40,-1021,117,60,998.48,39.8,0
"2018-11-27 11:57:07+00",22.9,27.9,,40.1,-1002,112,34,998.57,39.9,0
"2018-11-27 12:02:07+00",25.0,28.0,,40,-1112,92,51,998.65,39.8,0
"2018-11-27 12:07:07+00",21.9,25.9,,40,-960,41,44,998.8,39.8,0
"2018-11-27 12:12:07+00",22.9,26.9,,40,-1011,42,50,998.8,39.8,0
"2018-11-27 12:17:07+00",23.6,29.6,,40.1,-1035,51,51,998.89,39.8,0
"2018-11-27 12:22:07+00",21.7,25.7,,40,-955,15,75,998.99,39.8,4.6
"2018-11-27 12:27:07+00",20.5,24.5,,40,-900,18,55,999.13,40,13.3
"2018-11-27 12:32:07+00",25.5,30.5,,40,-1134,62,43,999.04,40.2,20.6
"2018-11-27 12:37:07+00",22.2,29.2,,40,-990,89,50,999.05,40.4,29.1
"2018-11-27 12:42:07+00",21.9,24.9,,40,-981,50,52,999.01,40.6,36.9
"2018-11-27 12:47:07+00",27.3,29.3,,40.1,-1201,-12,41,999.09,40.7,46
"2018-11-27 12:52:07+00",23.8,27.8,,40,-1046,-2,28,999.26,40.8,57.3
"2018-11-27 12:57:07+00",23.3,27.3,,40.1,-1024,53,66,999.13,40.9,62.5
"2018-11-27 13:02:07+00",22.7,27.7,,40.2,-992,-7,58,999.27,41.1,72.5
"2018-11-27 13:07:07+00",22.7,27.7,,40.3,-1005,52,107,999.25,41.2,82.9
"2018-11-27 13:12:07+00",21.9,28.9,,40.3,-983,60,75,999.36,41.3,91.6
"2018-11-27 13:17:07+00",25.3,31.3,,40.4,-1111,147,60,999.19,41.4,100.3
"2018-11-27 13:22:07+00",25.1,28.1,,40.5,-1099,126,55,999.32,41.6,110.1
"2018-11-27 13:27:07+00",24.1,31.1,,40.5,-1054,146,71,999.39,41.6,117.6
"2018-11-27 13:32:07+00",24.8,29.8,,40.7,-1092,168,61,999.33,41.7,127.2
"2018-11-27 13:37:07+00",24.8,28.8,,40.7,-1083,117,47,999.45,41.8,135.6
"2018-11-27 13:42:07+00",29.2,32.2,,40.7,-1292,175,42,999.37,41.8,145.2
"2018-11-27 13:47:07+00",23.4,26.4,,40.9,-1035,118,57,999.44,41.9,153.3
"2018-11-27 13:52:07+00",26.6,29.6,,40.9,-1169,254,68,999.33,42.1,159.4
"2018-11-27 13:57:07+00",29.2,33.2,,41,-1282,285,94,999.32,42.1,166.8
"2018-11-27 14:02:07+00",26.5,29.5,,41.1,-1162,271,93,999.4,42.2,173.7
"2018-11-27 14:07:07+00",26.8,30.8,,41.1,-1153,385,77,999.46,42.2,180.5
"2018-11-27 14:12:07+00",24.1,29.1,,41.2,-1065,129,71,999.59,42.3,186.4
"2018-11-27 14:17:07+00",26.9,29.9,,41.4,-1172,280,72,999.68,42.5,194.2
"2018-11-27 14:22:07+00",23.9,29.9,,41.6,-1052,234,81,999.72,42.6,198.8
"2018-11-27 14:27:07+00",25.8,33.8,,41.5,-1136,232,90,999.66,42.6,205
"2018-11-27 14:32:07+00",29.3,32.3,,41.4,-1229,473,83,999.56,42.5,210.6
"2018-11-27 14:37:07+00",31.0,37.0,,41.4,-1326,461,80,999.61,42.5,211.5
"2018-11-27 14:42:07+00",27.6,34.6,,41.6,-1163,407,85,999.82,42.6,217.2
"2018-11-27 14:47:07+00",25.4,28.4,,41.8,-1101,329,102,999.82,42.7,225.7
"2018-11-27 14:52:07+00",29.2,37.2,,41.7,-1220,494,105,999.77,42.8,225.3
"2018-11-27 14:57:07+00",28.0,31.0,,41.7,-1208,331,70,999.81,42.8,233.5
"2018-11-27 15:02:07+00",30.2,33.2,,41.7,-1279,432,84,999.89,42.9,237.7
"2018-11-27 15:07:07+00",28.7,34.7,,41.8,-1154,567,102,999.81,43,243
"2018-11-27 15:12:07+00",27.7,30.7,,41.6,-1198,370,80,999.8,42.8,236.8
"2018-11-27 15:17:07+00",29.5,35.5,,41.9,-1119,731,118,999.7,42.9,253
"2018-11-27 15:22:07+00",24.5,26.5,,42,-979,494,74,999.75,43,257.6
"2018-11-27 15:27:07+00",28.3,33.3,,41.8,-1145,564,68,999.84,43,184.5
"2018-11-27 15:32:07+00",31.5,34.5,,41.9,-1333,491,100,1000,43.2,232.4
"2018-11-27 15:37:07+00",29.1,33.1,,41.9,-1213,480,85,999.97,43.2,285.1
"2018-11-27 15:42:07+00",30.0,33.0,,42,-1282,427,90,999.97,43.3,266.7
"2018-11-27 15:47:07+00",26.2,29.2,,42.2,-1084,492,82,1000,43.4,318.8
"2018-11-27 15:52:07+00",27.0,31.0,,42.3,-1163,320,58,999.92,43.7,315.6
"2018-11-27 15:57:07+00",32.7,36.7,,42,-1366,538,87,999.8,43.4,130
"2018-11-27 16:02:07+00",26.6,29.6,,42.3,-1102,461,89,999.68,43.4,349.7
"2018-11-27 16:07:07+00",29.3,30.3,,42.3,-1254,401,105,999.5,43.5,207.7
"2018-11-27 16:12:07+00",34.3,37.3,,41.9,-1398,668,99,999.34,43,76.4
"2018-11-27 16:17:07+00",29.6,33.6,,42.3,-1301,332,130,999.38,43.2,151
"2018-11-27 16:22:07+00",27.4,32.4,,42.2,-1196,375,106,999.33,43.2,285.1
"2018-11-27 16:27:07+00",28.7,31.7,,42,-1251,299,78,999.22,43.2,182.8
"2018-11-27 16:32:07+00",25.9,29.9,,42,-1106,382,85,999.15,43.3,207.6
"2018-11-27 16:37:07+00",32.3,37.3,,42.1,-1354,538,106,999.13,43.2,226.3
"2018-11-27 16:42:07+00",28.8,33.8,,42.2,-1244,387,101,999.12,43.4,357.8
"2018-11-27 16:47:07+00",29.8,32.8,,42.1,-1272,460,85,998.98,43.4,330.6
"2018-11-27 16:52:07+00",30.1,35.1,,42.1,-1278,451,100,998.87,43.2,121.6
"2018-11-27 16:57:07+00",29.9,31.9,,41.8,-1209,597,83,998.83,42.9,121.4
"2018-11-27 17:02:07+00",34.4,37.4,,41.9,-1377,711,79,998.77,42.7,112.4
"2018-11-27 17:07:07+00",29.4,33.4,,42,-1188,595,132,998.88,42.8,306.1
"2018-11-27 17:12:07+00",32.3,35.3,,42.1,-1304,624,99,998.87,43.1,317
"2018-11-27 17:17:07+00",30.8,33.8,,42.1,-1199,695,76,998.82,43.2,179.4
"2018-11-27 17:22:07+00",25.6,28.6,,42.2,-1083,401,83,999.01,43.1,102.6
"2018-11-27 17:27:07+00",32.6,36.6,,41.9,-1351,568,88,998.97,42.7,153.6
"2018-11-27 17:32:07+00",31.3,36.3,,42,-1259,676,85,998.93,43.2,377.2
"2018-11-27 17:37:07+00",27.5,33.5,,42.1,-1104,577,92,998.86,43.2,161.2
"2018-11-27 17:42:07+00",29.7,33.7,,42,-1195,614,94,998.88,42.7,98.3
"2018-11-27 17:47:07+00",23.8,30.8,,42.1,-1010,371,105,999.1,42.6,88.1
"2018-11-27 17:52:07+00",28.1,32.1,,42.1,-1098,650,93,999.05,42.5,136.8
"2018-11-27 17:57:07+00",25.7,30.7,,42.1,-1069,439,81,999.09,42.6,107.4
"2018-11-27 18:02:07+00",29.8,33.8,,42.1,-1163,647,87,998.92,42.5,160.2
"2018-11-27 18:07:07+00",30.0,32.0,,42,-1175,660,69,998.86,42.4,102.4
"2018-11-27 18:12:07+00",27.6,30.6,,42,-1139,505,57,998.94,42.4,73.6
"2018-11-27 18:17:07+00",25.2,29.2,,42.1,-1029,452,66,999.08,42.4,69.9
"2018-11-27 18:22:07+00",27.2,30.2,,42.1,-1070,574,69,998.91,42.5,115.6
"2018-11-27 18:27:07+00",31.2,35.2,,42.1,-1251,643,73,998.8,42.7,245.7
"2018-11-27 18:32:07+00",30.0,32.0,,41.9,-1246,539,88,998.76,42.7,100.8
"2018-11-27 18:37:07+00",29.9,32.9,,41.9,-1218,588,76,998.71,42.3,73
"2018-11-27 18:42:07+00",31.2,39.2,,41.8,-1239,654,78,998.73,42,65.9
"2018-11-27 18:47:07+00",27.8,34.8,,41.9,-1207,447,113,998.68,42.2,94.8
"2018-11-27 18:52:07+00",27.4,32.4,,41.8,-1183,381,112,998.75,42.3,136.1
"2018-11-27 18:57:07+00",31.1,36.1,,41.7,-1365,374,92,998.68,42.3,68
"2018-11-27 19:02:07+00",25.2,30.2,,41.7,-980,539,78,998.72,42.1,77.8
"2018-11-27 19:07:07+00",29.0,34.0,,41.6,-1199,516,89,998.69,42,73
"2018-11-27 19:12:07+00",28.9,33.9,,41.5,-1146,603,80,998.7,41.8,53.6
"2018-11-27 19:17:07+00",24.7,28.7,,41.4,-995,475,86,998.79,41.6,52.1
"2018-11-27 19:22:07+00",24.6,28.6,,41.3,-1003,495,101,998.78,41.6,54.1
"2018-11-27 19:27:07+00",32.2,35.2,,41.1,-1350,535,88,998.66,41.5,42
"2018-11-27 19:32:07+00",30.4,35.4,,41,-1316,394,99,998.64,41.5,38.1
"2018-11-27 19:37:07+00",28.7,32.7,,40.9,-1255,318,96,998.75,41.4,42.8
"2018-11-27 19:42:07+00",26.7,29.7,,40.9,-1118,430,77,998.69,41.3,38.3
"2018-11-27 19:47:07+00",28.8,33.8,,40.7,-1185,502,111,998.81,41.2,46
"2018-11-27 19:52:07+00",31.4,34.4,,40.5,-1334,477,79,998.71,41,43.3
"2018-11-27 19:57:07+00",30.6,35.6,,40.6,-1271,537,77,998.81,40.9,41.5
"2018-11-27 20:02:07+00",33.3,37.3,,40.3,-1281,768,89,998.74,40.7,56.4
"2018-11-27 20:07:07+00",27.8,33.8,,40.6,-1110,593,68,998.79,41,51.2
"2018-11-27 20:12:07+00",27.6,31.6,,40.5,-1078,585,83,998.87,40.8,145.6
"2018-11-27 20:17:07+00",28.0,33.0,,40.3,-1132,533,98,998.83,40.9,52.9
"2018-11-27 20:22:07+00",32.0,35.0,,40.4,-1359,519,76,998.73,41,132.1
"2018-11-27 20:27:07+00",31.7,37.7,,40.3,-1270,635,86,998.71,41,115.3
"2018-11-27 20:32:07+00",31.2,34.2,,40.2,-1136,821,71,998.78,40.8,95.6
"2018-11-27 20:37:07+00",24.5,29.5,,40.2,-836,703,95,998.84,40.7,43.3
"2018-11-27 20:42:07+00",22.9,26.9,,40.2,-888,527,67,998.93,40.5,49.4
"2018-11-27 20:47:07+00",20.9,28.9,,40.3,-801,514,116,998.85,40.6,32.5
"2018-11-27 20:52:07+00",25.5,30.5,,40.1,-985,572,86,999.01,40.3,5.9
"2018-11-27 20:57:07+00",21.8,25.8,,40.1,-807,567,67,999.01,40.1,0.3
"2018-11-27 21:02:07+00",22.7,25.7,,40,-835,584,62,998.99,40,0
"2018-11-27 21:07:07+00",24.4,30.4,,40,-996,465,58,998.94,39.9,0
"2018-11-27 21:12:07+00",23.3,28.3,,39.9,-903,467,76,998.78,39.9,0
"2018-11-27 21:17:07+00",28.7,31.7,,39.8,-1149,591,72,998.72,39.8,0
"2018-11-27 21:22:07+00",25.9,28.9,,39.7,-1082,447,79,998.78,39.7,0
"2018-11-27 21:27:07+00",21.6,26.6,,39.6,-898,347,88,998.71,39.5,0
"2018-11-27 21:32:07+00",23.4,28.4,,39.6,-949,449,75,998.69,39.5,0
"2018-11-27 21:37:07+00",21.6,26.6,,39.5,-838,503,58,998.77,39.4,0
"2018-11-27 21:42:07+00",24.6,29.6,,39.4,-948,571,63,998.76,39.3,0
"2018-11-27 21:47:07+00",20.9,24.9,,39.3,-852,434,80,998.79,39.1,0
"2018-11-27 21:52:07+00",27.8,30.8,,39.2,-1116,569,74,998.84,39.1,0
"2018-11-27 21:57:07+00",22.1,25.1,,39.2,-922,384,59,999.04,39,0
"2018-11-27 22:02:07+00",27.1,32.1,,39.1,-1108,501,78,999.06,39.1,0
"2018-11-27 22:07:07+00",28.1,34.1,,39.1,-1154,497,63,998.94,39,0
"2018-11-27 22:12:07+00",25.3,30.3,,39.1,-1037,492,86,999.08,39,0
"2018-11-27 22:17:07+00",23.6,28.6,,38.9,-934,520,70,999.22,38.8,0
"2018-11-27 22:22:07+00",28.9,32.9,,38.8,-1093,687,76,999.34,38.7,0
"2018-11-27 22:27:07+00",30.1,34.1,,38.8,-1101,785,60,999.32,38.6,0
"2018-11-27 22:32:07+00",26.2,29.2,,38.7,-963,686,73,999.44,38.5,0
"2018-11-27 22:37:07+00",22.4,27.4,,38.6,-866,517,86,999.66,38.5,0
"2018-11-27 22:42:07+00",23.9,28.9,,38.6,-949,493,55,999.7,38.4,0
"2018-11-27 22:47:07+00",26.2,29.2,,38.6,-1024,568,50,999.63,38.4,0
"2018-11-27 22:52:07+00",28.7,32.7,,38.5,-1086,692,66,999.38,38.3,0
"2018-11-27 22:57:07+00",26.9,30.9,,38.5,-971,718,61,999.33,38.3,0
"2018-11-27 23:02:07+00",25.3,30.3,,38.5,-917,658,76,999.46,38.3,0
"2018-11-27 23:07:07+00",26.6,28.6,,38.5,-1013,660,56,999.39,38.2,0
"2018-11-27 23:12:07+00",29.0,32.0,,38.4,-1071,745,58,999.34,38.2,0
"2018-11-27 23:17:07+00",24.9,28.9,,38.3,-928,634,78,999.43,38.1,0
"2018-11-27 23:22:07+00",22.1,27.1,,38.3,-806,607,74,999.48,38,0
"2018-11-27 23:27:07+00",23.9,26.9,,38.3,-929,582,59,999.46,38.1,0
"2018-11-27 23:32:07+00",25.1,31.1,,38.3,-943,635,66,999.47,38,0
"2018-11-27 23:37:07+00",23.3,27.3,,38.3,-872,558,63,999.52,38,0
"2018-11-27 23:42:07+00",18.0,22.0,,38.1,-705,411,49,999.64,37.9,0
"2018-11-27 23:47:07+00",23.2,26.2,,38.1,-952,447,60,999.73,37.9,0
"2018-11-27 23:52:07+00",22.2,25.2,,38.1,-917,413,97,999.66,37.9,0
"2018-11-27 23:57:07+00",26.9,29.9,,37.9,-1071,589,60,999.67,37.7,0
